2405 Weather Reports


time (UTC)temp
F
wind
direction
speed
knots
gust
knots
rain 1hr
in
rain 24hr
in
rain mn
in
humidity
%
barometer
mb
20260504081557 53 267 2.6 6.1 0.00 0.00 0.00 52 1017.4
20260504044604 59 242 5.2 10.4 0.00 0.00 0.00 46 1017.4
20260504043102 59 242 5.2 10.4 0.00 0.00 0.00 46 1017.4
20260504041601 59 259 3.5 9.6 0.00 0.00 0.00 46 1017.4
20260504040106 59 212 4.3 8.7 0.00 0.00 0.00 46 1017.4
20260504034616 59 227 3.5 7.0 0.00 0.00 0.00 45 1017.4
20260504033128 60 234 4.3 7.8 0.00 0.00 0.00 45 1017.4
20260504031604 60 201 4.3 9.6 0.00 0.00 0.00 44 1017.4
20260504030104 60 209 1.7 5.2 0.00 0.00 0.00 44 1017.4
20260504024558 61 197 2.6 7.0 0.00 0.00 0.00 43 1017.4
20260504023105 61 206 2.6 7.0 0.00 0.00 0.00 42 1017.4
20260504021557 62 197 2.6 5.2 0.00 0.00 0.00 41 1017.4
20260504020100 62 237 3.5 8.7 0.00 0.00 0.00 41 1017.4
20260504014600 62 211 2.6 6.1 0.00 0.00 0.00 39 1017.4
20260504013110 63 217 1.7 3.5 0.00 0.00 0.00 38 1017.4
20260504011559 64 223 1.7 4.3 0.00 0.00 0.00 36 1017.4
20260504010113 65 223 1.7 8.7 0.00 0.00 0.00 34 1017.4
20260504004624 66 229 2.6 7.0 0.00 0.00 0.00 33 1017.4
20260504003059 66 229 3.5 10.4 0.00 0.00 0.00 32 1017.4
20260504001612 67 225 4.3 10.4 0.00 0.00 0.00 31 1017.4
20260504000100 67 260 3.5 13.9 0.00 0.00 0.00 31 1017.4
20260503234557 68 238 8.7 16.5 0.00 0.00 0.00 30 1017.4
20260503233100 68 248 7.0 15.6 0.00 0.00 0.00 30 1017.4
20260503231559 68 236 7.0 18.2 0.00 0.00 0.00 30 1017.4
20260503230103 68 213 7.8 17.4 0.00 0.00 0.00 30 1017.4
20260503224600 68 193 7.8 17.4 0.00 0.00 0.00 30 1017.4
20260503223100 68 186 6.1 17.4 0.00 0.00 0.00 30 1017.4
20260503221602 68 170 7.0 14.8 0.00 0.00 0.00 30 1017.4
20260503220059 67 212 9.6 20.0 0.00 0.00 0.00 29 1017.4
20260503214600 67 228 9.6 20.9 0.00 0.00 0.00 30 1017.4
20260503213108 66 238 8.7 24.3 0.00 0.00 0.00 31 1017.4
20260503211559 66 223 12.2 26.9 0.00 0.00 0.00 29 1017.4
20260503210111 65 217 11.3 25.2 0.00 0.00 0.00 30 1017.4
20260503204609 66 173 10.4 19.1 0.00 0.00 0.00 29 1017.4
20260503203105 65 265 5.2 25.2 0.00 0.00 0.00 30 1017.4
20260503201604 64 196 7.0 17.4 0.00 0.00 0.00 36 1017.4
20260503194600 62 188 7.8 23.5 0.00 0.00 0.00 40 1017.4
20260503193101 62 260 9.6 18.2 0.00 0.00 0.00 36 1017.4
20260503191632 61 244 7.0 20.0 0.00 0.00 0.00 38 1017.4
20260503190059 60 192 9.6 27.8 0.00 0.00 0.00 37 1017.4
20260503184601 59 179 7.8 21.7 0.00 0.00 0.00 38 1017.4
20260503183115 59 169 10.4 23.5 0.00 0.00 0.00 38 1017.4
20260503181602 59 205 9.6 23.5 0.00 0.00 0.00 40 1017.4
20260503180100 57 170 7.0 20.9 0.00 0.00 0.00 42 1017.4
20260503174558 57 238 9.6 24.3 0.00 0.00 0.00 42 1017.4
20260503173119 57 227 11.3 22.6 0.00 0.00 0.00 44 1017.4
20260503171559 55 175 8.7 26.1 0.00 0.00 0.00 47 1017.4